Location: Unspecified
(0.0000°N, 0.0000°E)
Time: 02:04:01
(UTC+00:00)

LES 2 - Pass Details

Date: 15 October 2025
Orbit: 2783 x 14792 km, 32.1° (Epoch: 30 October)

Event Time Altitude Azimuth Distance (km) Brightness Sun altitude
Rises 22:41:59 0° 291° (WNW) 7,857 ? -71.8°
Reaches altitude 10° 22:47:17 10° 286° (WNW) 6,218 ? -73.0°
Enters shadow 22:51:35 21° 278° (W) 4,953 ? -73.9°
Exits shadow 23:15:11 15° 140° (SE) 6,124 ? -78.3°
Drops below altitude 10° 23:17:41 10° 136° (SE) 6,869 ? -78.7°
Sets 23:24:14 0° 130° (SE) 8,813 ? -79.6°
